,

(GMT )
Banff

Weather History for CWZG - May, 2014

Change the Weather History Date:

Wednesday, May 14, 2014

  Actual Average Record
Temperature  
Mean Temperature 46 °F -  
Max Temperature 63 °F - - ()
Min Temperature 28 °F - - ()
Degree Days  
Heating Degree Days 20    
Moisture  
Dew Point 29 °F    
Average Humidity 55    
Maximum Humidity 90    
Minimum Humidity 30    
Precipitation  
Precipitation 0.00 in - - ()
Sea Level Pressure  
Sea Level Pressure 30.35 in    
Wind  
Wind Speed 3 mph ()    
Max Wind Speed 10 mph    
Max Gust Speed 18 mph    
T = Trace of Precipitation, MM = Missing Value Source: Averaged Metar Reports

Daily Weather History Graph

Daily Weather History Graph

Search for Another Location

Airport or City:

Trip Planner

Search our weather history database for the weather conditions in past years. The results will help you decide how hot, cold, wet, or windy it might be!

Date:

Astronomy

May. 14, 2014 Rise Set
Actual Time 5:52 AM MDT 9:25 PM MDT
Civil Twilight 5:12 AM MDT 10:06 PM MDT
Nautical Twilight 4:17 AM MDT 11:01 PM MDT
Astronomical Twilight 2:58 AM MDT 12:22 AM MDT
Moon 9:32 PM MDT (5/14) 6:00 AM MDT (5/14)
Length of Visible Light 16h 53m
Length of Day
15h 32m
Full, 100% of the Moon is Illuminated
May 14
Full
May 14
Full
May 21
Last Quarter
May 28
New
Jun 5
First Quarter

Hourly Weather History & Observations

Time (MDT) Temp. Windchill Dew Point Humidity Pressure Visibility Wind Dir Wind Speed Gust Speed Precip Events Conditions
12:00 AM 35.1 °F - 26.4 °F 71% 30.43 in - Calm Calm - N/A   Unknown
1:00 AM 34.2 °F - 27.0 °F 75% 30.42 in - SSW 1.2 mph - N/A   Unknown
2:00 AM 32.9 °F - 26.8 °F 78% 30.42 in - NW 1.2 mph - N/A   Unknown
3:00 AM 28.8 °F - 25.7 °F 88% 30.43 in - WNW 1.2 mph - N/A   Unknown
4:00 AM 28.0 °F - 25.3 °F 90% 30.43 in - Calm Calm - N/A   Unknown
5:00 AM 29.1 °F - 26.6 °F 90% 30.42 in - SSW 1.2 mph - N/A   Unknown
6:00 AM 29.7 °F - 25.7 °F 85% 30.43 in - SW 1.2 mph - N/A   Unknown
7:00 AM 33.6 °F 30.6 °F 29.3 °F 84% 30.43 in - SSW 3.5 mph - N/A   Unknown
8:00 AM 37.9 °F 34.4 °F 28.0 °F 68% 30.41 in - WSW 4.6 mph - N/A   Unknown
9:00 AM 42.6 °F 39.9 °F 27.3 °F 55% 30.40 in - WSW 4.6 mph - N/A   Unknown
10:00 AM 48.4 °F - 28.4 °F 46% 30.38 in - SW 4.6 mph - N/A   Unknown
12:00 PM 59.7 °F - 28.0 °F 30% 30.32 in - SW 8.1 mph - N/A   Unknown
1:00 PM 59.9 °F - 29.5 °F 32% 30.31 in - SW 8.1 mph - N/A   Unknown
2:00 PM 62.4 °F - 30.6 °F 30% 30.30 in - WSW 10.4 mph 17.3 mph N/A   Unknown
3:00 PM 61.9 °F - 30.4 °F 31% 30.30 in - WSW 6.9 mph 17.3 mph N/A   Unknown
4:00 PM 63.0 °F - 30.9 °F 30% 30.29 in - WSW 6.9 mph 18.4 mph N/A   Unknown
5:00 PM 62.8 °F - 30.6 °F 30% 30.28 in - West 8.1 mph - N/A   Unknown
6:00 PM 62.4 °F - 31.3 °F 31% 30.27 in - West 5.8 mph - N/A   Unknown
7:00 PM 61.7 °F - 31.6 °F 32% 30.25 in - West 5.8 mph - N/A   Unknown
8:00 PM 58.8 °F - 32.0 °F 36% 30.24 in - WNW 2.3 mph - N/A   Unknown
9:00 PM 57.2 °F - 31.3 °F 37% 30.22 in - West 3.5 mph - N/A   Unknown
10:00 PM 48.0 °F - 34.7 °F 60% 30.22 in - West 1.2 mph - N/A   Unknown